KD2GO Weather Reports


Display with metric or nautical units.
time (UTC)temp
F
wind
direction
speed
MPH
gust
MPH
rain 1hr
in
rain 24hr
in
rain mn
in
humidity
%
barometer
mb
20260510024501 51 121 0.0 1.0 0.00 0.33 0.33 42 1010.5
20260510023001 51 121 0.0 0.0 0.00 0.33 0.33 46 1010.5
20260510021501 51 121 0.0 1.0 0.00 0.33 0.33 47 1010.5
20260510020003 51 121 0.0 0.0 0.00 0.33 0.33 50 1010.5
20260510014500 51 121 0.0 0.0 0.00 0.33 0.33 50 1010.5
20260510012959 51 121 0.0 1.0 0.00 0.33 0.33 51 1010.5
20260510011500 51 121 1.0 2.0 0.00 0.33 0.33 53 1010.4
20260510010001 52 121 1.0 4.0 0.00 0.33 0.33 52 1010.3
20260510004459 52 121 2.0 3.0 0.00 0.33 0.33 54 1010.1
20260510001459 53 121 2.0 5.0 0.00 0.33 0.33 57 1009.6
20260509235959 53 107 3.0 4.0 0.00 0.33 0.33 61 1009.7
20260509234459 54 124 2.0 4.0 0.00 0.33 0.33 64 1009.7
20260509232959 54 72 1.0 5.0 0.00 0.33 0.33 68 1009.6
20260509231459 54 119 1.0 3.0 0.00 0.33 0.33 71 1009.6
20260509224500 55 110 2.0 3.0 0.00 0.33 0.33 79 1009.6
20260509223001 56 1 1.0 2.0 0.00 0.33 0.33 82 1009.6
20260509221501 55 348 0.0 2.0 0.00 0.33 0.33 80 1009.6
20260509220000 55 326 0.0 1.0 0.01 0.33 0.33 81 1009.5
20260509214459 55 326 1.0 2.0 0.01 0.33 0.33 79 1009.5
20260509212959 55 359 2.0 6.0 0.01 0.33 0.33 76 1009.6
20260509211459 55 289 3.0 8.0 0.02 0.33 0.33 73 1009.8
20260509210002 55 283 2.0 5.0 0.04 0.32 0.32 53 1009.8
20260509203000 53 314 0.0 1.0 0.08 0.32 0.32 60 1009.7
20260509201501 52 314 1.0 3.0 0.09 0.31 0.31 63 1010.1
20260509200001 52 314 0.0 2.0 0.08 0.28 0.28 60 1009.9
20260509191500 53 316 3.0 6.0 0.11 0.22 0.22 65 1011.0
20260509190001 53 275 2.0 7.0 0.10 0.20 0.20 68 1010.9
20260509184459 53 301 3.0 11.0 0.10 0.17 0.17 69 1011.1
20260509182959 53 330 2.0 7.0 0.09 0.14 0.14 69 1011.3
20260509181459 54 305 1.0 3.0 0.08 0.11 0.11 73 1011.3
20260509180000 54 285 2.0 5.0 0.08 0.09 0.09 77 1011.0
20260509174459 54 312 0.0 2.0 0.06 0.07 0.07 79 1011.0
20260509171458 55 336 1.0 4.0 0.03 0.03 0.03 84 1011.3
20260509170001 56 232 1.0 3.0 0.01 0.01 0.01 85 1011.5
20260509164459 56 283 2.0 6.0 0.01 0.01 0.01 85 1011.2
20260509162959 57 311 3.0 10.0 0.01 0.01 0.01 83 1011.5
20260509160001 56 303 2.0 4.0 0.00 0.00 0.00 85 1011.6
20260509154459 56 330 1.0 4.0 0.00 0.00 0.00 84 1011.6
20260509153000 56 147 1.0 3.0 0.00 0.00 0.00 85 1011.6
20260509151459 56 114 1.0 4.0 0.00 0.00 0.00 84 1011.6
20260509150001 55 224 0.0 1.0 0.00 0.00 0.00 85 1011.6
20260509142959 54 192 1.0 4.0 0.00 0.00 0.00 84 1011.6
20260509141459 54 129 2.0 3.0 0.00 0.00 0.00 84 1011.6
20260509140001 54 133 2.0 5.0 0.00 0.00 0.00 83 1011.5
20260509134500 54 71 2.0 4.0 0.00 0.00 0.00 82 1011.4
20260509132959 54 131 1.0 3.0 0.00 0.00 0.00 82 1011.3
20260509131458 53 127 2.0 4.0 0.00 0.00 0.00 82 1011.4
20260509130000 53 207 2.0 4.0 0.00 0.00 0.00 82 1011.6
20260509124459 53 123 3.0 5.0 0.00 0.00 0.00 81 1011.6
20260509122958 52 124 4.0 6.0 0.00 0.00 0.00 80 1011.7
20260509121458 52 119 2.0 4.0 0.00 0.00 0.00 81 1011.5
20260509115958 52 119 2.0 4.0 0.00 0.00 0.00 80 1011.6
20260509114458 52 120 2.0 4.0 0.00 0.00 0.00 80 1011.5
20260509112958 52 112 2.0 6.0 0.00 0.00 0.00 79 1011.6
20260509111458 52 110 3.0 6.0 0.00 0.00 0.00 79 1011.4
20260509105957 52 117 3.0 5.0 0.00 0.00 0.00 80 1011.6
20260509102959 52 328 1.0 3.0 0.00 0.00 0.00 79 1011.2
20260509101458 52 323 0.0 1.0 0.00 0.00 0.00 77 1011.3
20260509092957 52 11 1.0 2.0 0.00 0.00 0.00 74 1011.2
20260509090000 52 11 0.0 1.0 0.00 0.00 0.00 73 1011.3
20260509084458 52 11 1.0 2.0 0.00 0.00 0.00 74 1011.5
20260509081458 52 61 1.0 2.0 0.00 0.00 0.00 73 1011.6
20260509075958 52 61 1.0 2.0 0.00 0.00 0.00 73 1011.6
20260509074458 51 61 0.0 0.0 0.00 0.00 0.00 74 1011.8
20260509072957 52 61 0.0 2.0 0.00 0.00 0.00 73 1011.5
20260509065958 51 305 0.0 2.0 0.00 0.01 0.00 77 1011.6
20260509064457 51 305 0.0 0.0 0.00 0.01 0.00 78 1011.7
20260509062958 51 305 0.0 2.0 0.00 0.01 0.00 77 1011.8
20260509061457 52 305 0.0 3.0 0.00 0.01 0.00 75 1012.1
20260509060000 54 25 0.0 1.0 0.00 0.01 0.00 73 1011.9
20260509054457 54 25 1.0 2.0 0.00 0.01 0.00 68 1011.9
20260509052958 54 25 0.0 2.0 0.00 0.01 0.00 66 1011.9
20260509050001 53 25 0.0 0.0 0.00 0.01 0.00 70 1012.7
20260509044500 53 25 0.0 2.0 0.00 0.01 0.00 69 1012.7
20260509041500 54 25 0.0 1.0 0.00 0.01 0.00 69 1012.6
20260509040005 53 25 0.0 2.0 0.00 0.01 0.00 70 1012.6
20260509034502 53 25 0.0 2.0 0.00 0.01 0.01 71 1012.6
20260509033002 53 25 0.0 0.0 0.00 0.01 0.01 69 1012.6
20260509031501 53 25 0.0 0.0 0.00 0.01 0.01 71 1012.6